AEROCUBE 5C

Last updated on Wed Nov 05 2025 00:03:48 GMT+0000 (Coordinated Universal Time)

1 40965U 15058B 25308.22830242 .00002880 00000+0 26251-3 0 9990 2 40965 64.7678 241.6045 0142950 150.4145 210.5153 14.89743988332126
UTC large
Height (km)
Speed (km/s)
/
Latitude / Longitude
Inclination (degrees)
Orbital Period (minutes)
Azimuth
Elevation
Range (km)
Doppler Factor

Next 0 passes for location: London (51.5072 / 0.1276)

Sorry there are no passes over London.